Voltar ao catálogo

STARLINK-30915

AtivoComunicaçõesVLEO
NORAD 58380·PAYLOAD·🇺🇸 United States

Lançado Nov 20, 2023 de Vandenberg Space Force Base

Loading…

Próximas Passagens (próximas 24 horas)

TLE

AtualizadoSource: CelesTrak SupGP

Época: Sep 14, 2026, 22:35 UTC

1 58380C 23178G   26257.94145833 -.00029476  00000+0 -87101-3 0  2570
2 58380  53.1570 109.3597 0001286  87.3823 244.7374 15.34400700    15

Acompanhe STARLINK-30915 em tempo real com AllMySat

Download on the App Store